Skagway, AK

10:16 AM AKST on December 05, 2016 (GMT -0900)
Skagway

Weather History for PAGY - August, 2012

Change the Weather History Date:

Friday, August 17, 2012

  Actual Average Record
Temperature  
Mean Temperature 54 °F -  
Max Temperature 61 °F 61 °F 74 °F (1984)
Min Temperature 50 °F 48 °F 39 °F (1984)
Degree Days  
Heating Degree Days 10    
Growing Degree Days 4 (Base 50)    
Moisture  
Dew Point 51 °F    
Average Humidity 91    
Maximum Humidity 100    
Minimum Humidity 64    
Precipitation  
Precipitation 0.22 in - - ()
Sea Level Pressure  
Sea Level Pressure 29.90 in    
Wind  
Wind Speed 1 mph (SW)    
Max Wind Speed 6 mph    
Max Gust Speed -    
Visibility 6 miles    
Events Rain    
Averages and records for this station are not official NWS values.
T = Trace of Precipitation, MM = Missing Value Source: NWS Daily Summary

Daily Weather History Graph

Daily Weather History Graph

Search for Another Location

Airport or City:

Trip Planner

Search our weather history database for the weather conditions in past years. The results will help you decide how hot, cold, wet, or windy it might be!

Date:

Astronomy

Aug. 17, 2012 Rise Set
Actual Time 5:24 AM AKDT 8:44 PM AKDT
Civil Twilight 4:35 AM AKDT 9:32 PM AKDT
Nautical Twilight 3:25 AM AKDT 10:41 PM AKDT
Astronomical Twilight 1:37 AM AKDT 12:32 AM AKDT
Moon 5:54 AM AKDT (8/17) 8:03 PM AKDT (8/17)
Length of Visible Light 16h 57m
Length of Day
15h 20m
New Moon, 0% of the Moon is Illuminated
Aug 17
New Moon
Aug 24
First Quarter
Aug 31
Full
Sep 8
Last Quarter
Sep 15
New

Hourly Weather History & Observations

Time (AKDT) Temp. Dew Point Humidity Pressure Visibility Wind Dir Wind Speed Gust Speed Precip Events Conditions
12:53 AM 52.0 °F 48.9 °F 89% 30.04 in 10.0 mi Calm Calm - N/A   Overcast
1:53 AM 52.0 °F 50.0 °F 93% 30.03 in 10.0 mi Calm Calm - N/A   Overcast
2:53 AM 52.0 °F 50.0 °F 93% 30.01 in 10.0 mi Calm Calm - N/A   Overcast
3:53 AM 53.1 °F 50.0 °F 89% 29.99 in 10.0 mi NE 3.5 mph - N/A   Overcast
4:53 AM 53.1 °F 48.9 °F 86% 29.99 in 10.0 mi Calm Calm - N/A   Overcast
5:53 AM 51.1 °F 48.9 °F 92% 29.98 in 10.0 mi Calm Calm - N/A   Overcast
6:53 AM 52.0 °F 48.9 °F 89% 29.98 in 10.0 mi Calm Calm - N/A   Mostly Cloudy
7:53 AM 52.0 °F 48.9 °F 89% 29.96 in 10.0 mi Calm Calm - N/A   Partly Cloudy
8:53 AM 55.0 °F 50.0 °F 83% 29.95 in 10.0 mi Calm Calm - N/A   Partly Cloudy
9:53 AM 54.0 °F 48.9 °F 83% 29.94 in 10.0 mi SW 5.8 mph - N/A   Mostly Cloudy
10:53 AM 54.0 °F 50.0 °F 86% 29.94 in 10.0 mi SW 4.6 mph - N/A   Overcast
11:53 AM 55.0 °F 48.9 °F 80% 29.93 in 10.0 mi WSW 3.5 mph - N/A   Overcast
12:53 PM 57.0 °F 48.9 °F 74% 29.92 in 10.0 mi Calm Calm - N/A   Overcast
1:53 PM 59.0 °F 48.0 °F 67% 29.92 in 10.0 mi Calm Calm - N/A   Overcast
2:53 PM 59.0 °F 46.9 °F 64% 29.91 in 10.0 mi Calm Calm - N/A   Overcast
3:53 PM 59.0 °F 46.9 °F 64% 29.90 in 10.0 mi WSW 4.6 mph - N/A   Overcast
4:53 PM 57.0 °F 48.9 °F 74% 29.90 in 10.0 mi West 5.8 mph - N/A   Overcast
5:35 PM 55.4 °F 51.8 °F 88% 29.90 in 2.5 mi Calm Calm - 0.02 in Rain Rain
5:42 PM 55.4 °F 53.6 °F 94% 29.90 in 6.0 mi Calm Calm - N/A Rain Light Rain
5:53 PM 55.0 °F 52.0 °F 89% 29.90 in 9.0 mi Calm Calm - 0.02 in Rain Light Rain
6:16 PM 55.4 °F 53.6 °F 94% 29.88 in 8.0 mi Calm Calm - 0.01 in Rain Light Rain
6:45 PM 53.6 °F 51.8 °F 94% 29.88 in 9.0 mi WSW 3.5 mph - 0.01 in Rain Light Rain
6:53 PM 53.1 °F 51.1 °F 93% 29.88 in 9.0 mi SW 3.5 mph - 0.01 in   Overcast
7:29 PM 53.6 °F 51.8 °F 94% 29.87 in 8.0 mi Calm Calm - 0.00 in Rain Light Rain
7:44 PM 53.6 °F 51.8 °F 94% 29.87 in 4.0 mi Calm Calm - 0.00 in   Overcast
7:53 PM 52.0 °F 51.1 °F 97% 29.87 in 2.0 mi Calm Calm - 0.01 in Rain Light Rain
8:16 PM 51.8 °F 51.8 °F 100% 29.87 in 1.8 mi Calm Calm - 0.03 in Rain Light Rain
8:25 PM 53.6 °F 51.8 °F 94% 29.86 in 2.0 mi Calm Calm - 0.04 in Rain Light Rain
8:41 PM 53.6 °F 51.8 °F 94% 29.86 in 5.0 mi Calm Calm - 0.05 in Rain Light Rain
8:53 PM 53.1 °F 52.0 °F 96% 29.87 in 4.0 mi Calm Calm - 0.06 in Rain Light Rain
9:02 PM 53.6 °F 51.8 °F 94% 29.86 in 2.5 mi Calm Calm - 0.00 in Rain Light Rain
9:10 PM 53.6 °F 51.8 °F 94% 29.86 in 4.0 mi Calm Calm - 0.01 in Rain Light Rain
9:22 PM 53.6 °F 53.6 °F 100% 29.85 in 3.0 mi Calm Calm - 0.02 in Rain Light Rain
9:53 PM 53.1 °F 52.0 °F 96% 29.85 in 3.0 mi Calm Calm - 0.04 in Rain Light Rain
10:11 PM 53.6 °F 51.8 °F 94% 29.85 in 2.5 mi Calm Calm - 0.02 in Rain Light Rain
10:24 PM 51.8 °F 51.8 °F 100% 29.85 in 2.0 mi Calm Calm - 0.03 in Rain Light Rain
10:26 PM 51.8 °F 51.8 °F 100% 29.85 in 1.5 mi SSW 3.5 mph - 0.03 in Rain Light Rain
10:29 PM 51.8 °F 51.8 °F 100% 29.85 in 1.0 mi SSW 3.5 mph - 0.03 in Rain Light Rain
10:31 PM 51.8 °F 51.8 °F 100% 29.85 in 0.8 mi Calm Calm - 0.03 in Rain Light Rain
10:46 PM 51.8 °F 51.8 °F 100% 29.85 in 1.0 mi SW 3.5 mph - 0.05 in Rain Light Rain
10:53 PM 51.1 °F 51.1 °F 100% 29.85 in 0.8 mi Calm Calm - 0.05 in Rain Light Rain
11:03 PM 51.8 °F 50.0 °F 94% 29.86 in 0.8 mi Calm Calm - 0.01 in Rain Light Rain
11:14 PM 51.8 °F 50.0 °F 94% 29.85 in 0.8 mi Calm Calm - 0.02 in Rain Light Rain
11:43 PM 50.0 °F 50.0 °F 100% 29.86 in 1.0 mi Calm Calm - 0.03 in Rain Light Rain
11:53 PM 51.1 °F 51.1 °F 100% 29.86 in 0.8 mi Calm Calm - 0.03 in Rain Light Rain